Location: Bacharowice
(49.9333°N, 19.5833°E)
Time: 07:37:48
(UTC+00:00)

Cosmos 1461 - Pass Details

Date: 11 May 2021
Orbit: 510 x 653 km, 65.0° (Epoch: 21 June)

Event Time Altitude Azimuth Distance (km) Brightness Sun altitude
Exits shadow 21:31:04 37° 114° (ESE) 1,007 3.8 -20.4°
Drops below altitude 10° 21:35:09 10° 53° (NE) 2,036 6.0 -20.5°
Sets 21:37:32 0° 45° (NE) 2,932 6.9 -20.6°
